Starlink 30237

operational
NORAD ID: 57437 Int'l Des: 2023-105 Owner: SPXS Country: US Constellation: starlink
LEOCIRCULAR

About Starlink 30237

Description loading...

Live Position

Loading 3D Globe...

Upcoming Passes

Altitude History

Altitude vs Time

uPlot chart will show altitude changes over time

Two-Line Element Set

1 57437U 23105H 25348.91668981 .00067779 00000-0 33953-2 0 9998
2 57437 43.0007 0.2649 0002197 293.5169 20.8539 15.16505864 5730
Epoch: Dec 14, 2025 • Age: 19 hours

Current Status

Altitude 518.5 km
Velocity 7.61 km/s
Sub-Earth Point -17.45°S, 4.17°W
Launch Date Jul 24, 2023
Age 2.3 years
Type internet

Technical Details

Classification Payload
Mass 730.00 kg
Dry Mass 700.00 kg
Total Mass 730.00 kg
Length 0.30 m
Diameter 4.10 m
Span 29.00 m
Shape Box + pan
Manufacturer SPXS
Bus Type Starlink V2M
Phase Status In Orbit
Owner/State SPXS/US

Large Constellations

Loading constellations...